GW3496 Weather Reports


Display with metric or nautical units.
time (UTC)temp
F
wind
direction
speed
MPH
gust
MPH
rain 1hr
in
rain 24hr
in
rain mn
in
humidity
%
barometer
mb
20260504223035 77 245 11.0 17.0 0.00 0.00 0.00 35 1008.1
20260504221535 77 235 14.0 23.0 0.00 0.00 0.00 35 1008.2
20260504220034 77 240 8.0 16.0 0.00 0.00 0.00 35 1008.2
20260504214535 77 237 11.0 16.0 0.00 0.00 0.00 35 1008.3
20260504213033 77 161 13.0 23.0 0.00 0.00 0.00 35 1008.3
20260504211539 77 199 11.0 26.0 0.00 0.00 0.00 34 1008.3
20260504210055 76 169 9.0 17.0 0.00 0.00 0.00 34 1008.2
20260504204551 77 76 7.0 24.0 0.00 0.00 0.00 33 1008.3
20260504203041 77 247 8.0 20.0 0.00 0.00 0.00 33 1008.4
20260504201535 76 213 13.0 19.0 0.00 0.00 0.00 33 1008.6
20260504200042 75 190 11.0 20.0 0.00 0.00 0.00 34 1008.6
20260504194539 75 189 13.0 21.0 0.00 0.00 0.00 35 1008.6
20260504193039 77 217 12.0 19.0 0.00 0.00 0.00 32 1008.9
20260504191535 76 208 9.0 22.0 0.00 0.00 0.00 32 1008.9
20260504190035 76 192 11.0 24.0 0.00 0.00 0.00 32 1008.9
20260504184535 76 227 9.0 20.0 0.00 0.00 0.00 32 1009.4
20260504183040 75 202 13.0 23.0 0.00 0.00 0.00 33 1009.7
20260504181534 75 188 13.0 19.0 0.00 0.00 0.00 32 1010.0
20260504180039 74 228 9.0 22.0 0.00 0.00 0.00 32 1010.2
20260504174534 74 252 14.0 21.0 0.00 0.00 0.00 32 1010.3
20260504173046 74 215 10.0 17.0 0.00 0.00 0.00 32 1010.5
20260504171540 73 219 7.0 15.0 0.00 0.00 0.00 33 1011.0
20260504081547 51 153 1.0 6.0 0.00 0.00 0.00 61 1013.6
20260504044532 52 142 0.0 0.0 0.00 0.00 0.00 65 1013.5
20260504043032 51 139 0.0 0.0 0.00 0.00 0.00 66 1013.4
20260504041542 51 126 0.0 0.0 0.00 0.00 0.00 67 1013.4
20260504040039 52 128 0.0 0.0 0.00 0.00 0.00 66 1013.5
20260504034541 52 117 0.0 0.0 0.00 0.00 0.00 64 1013.5
20260504033030 52 117 0.0 0.0 0.00 0.00 0.00 61 1013.4
20260504031535 53 117 0.0 0.0 0.00 0.00 0.00 60 1013.6
20260504030037 53 117 0.0 0.0 0.00 0.00 0.00 58 1013.3
20260504024531 54 117 0.0 0.0 0.00 0.00 0.00 56 1013.4
20260504023031 54 117 0.0 0.0 0.00 0.00 0.00 56 1013.5
20260504021532 55 117 0.0 0.0 0.00 0.00 0.00 54 1013.0
20260504020037 55 121 0.0 0.0 0.00 0.00 0.00 54 1013.0
20260504014535 57 95 0.0 0.0 0.00 0.00 0.00 48 1013.0
20260504013042 58 161 0.0 3.0 0.00 0.00 0.00 45 1013.0
20260504011536 58 174 1.0 5.0 0.00 0.00 0.00 43 1012.9
20260504010035 59 169 0.0 0.0 0.00 0.00 0.00 41 1012.6
20260504004533 60 140 0.0 3.0 0.00 0.00 0.00 39 1012.6
20260504003035 61 192 0.0 3.0 0.00 0.00 0.00 36 1012.4
20260504001535 62 225 0.0 0.0 0.00 0.00 0.00 33 1012.3
20260504000029 63 233 0.0 2.0 0.00 0.00 0.00 32 1012.5
20260503234532 63 242 2.0 4.0 0.00 0.00 0.00 30 1012.1
20260503233030 64 234 1.0 5.0 0.00 0.00 0.00 29 1012.1
20260503231536 64 257 0.0 4.0 0.00 0.00 0.00 29 1012.1
20260503230040 64 278 2.0 10.0 0.00 0.00 0.00 29 1012.1
20260503224530 64 238 3.0 10.0 0.00 0.00 0.00 29 1012.1